• In Latvia
  • List of Countries
  • For 7 days
  • Water Temperature
  • Satellite Maps
  • Weather Map
  • Weather Widgets
  • user-avatar
    Login

    Hourly Weather Mingachevir

    Today, 23 January, Tuesday

    Time Temperature Precipitation Wind Pressure Humidity
    00:00 +8°C° 0 mm 3 mps 748 mmHg 38%
    01:00 +8°C° 0 mm 3 mps 748 mmHg 36%
    02:00 +8°C° 0 mm 3 mps 748 mmHg 34%
    03:00 +7°C° 0 mm 4 mps 747 mmHg 31%
    04:00 +7°C° 0 mm 4 mps 747 mmHg 31%
    05:00 +8°C° 0 mm 3 mps 748 mmHg 31%
    06:00 +8°C° 0 mm 3 mps 748 mmHg 31%
    07:00 +9°C° 0 mm 3 mps 748 mmHg 30%
    08:00 +9°C° 0 mm 3 mps 748 mmHg 29%
    09:00 +11°C° 0 mm 3 mps 748 mmHg 29%
    10:00 +12°C° 0 mm 3 mps 748 mmHg 26%
    11:00 +13°C° 0 mm 3 mps 747 mmHg 23%
    12:00 +16°C° 0 mm 3 mps 747 mmHg 21%
    13:00 +16°C° 0 mm 3 mps 747 mmHg 21%
    14:00 +16°C° 0 mm 3 mps 747 mmHg 21%
    15:00 +17°C° 0 mm 2 mps 747 mmHg 22%
    16:00 +15°C° 0 mm 2 mps 748 mmHg 25%
    17:00 +14°C° 0 mm 2 mps 748 mmHg 27%
    18:00 +13°C° 0 mm 2 mps 749 mmHg 30%
    19:00 +12°C° 0 mm 2 mps 749 mmHg 31%
    20:00 +12°C° 0 mm 2 mps 749 mmHg 32%
    21:00 +10°C° 0 mm 2 mps 749 mmHg 32%
    22:00 +10°C° 0 mm 2 mps 749 mmHg 34%
    23:00 +9°C° 0 mm 2 mps 749 mmHg 35%

    Tomorrow, 24 January, Wednesday

    Time Temperature Precipitation Wind Pressure Humidity
    00:00 +9°C° 0 mm 2 mps 749 mmHg 37%
    01:00 +9°C° 0 mm 2 mps 750 mmHg 39%
    02:00 +8°C° 0 mm 2 mps 750 mmHg 41%
    03:00 +8°C° 0 mm 2 mps 750 mmHg 43%
    04:00 +8°C° 0 mm 2 mps 750 mmHg 44%
    05:00 +7°C° 0 mm 2 mps 751 mmHg 44%
    06:00 +7°C° 0 mm 2 mps 751 mmHg 45%
    07:00 +8°C° 0 mm 3 mps 751 mmHg 43%
    08:00 +9°C° 0 mm 3 mps 752 mmHg 41%
    09:00 +10°C° 0 mm 3 mps 752 mmHg 39%
    10:00 +11°C° 0 mm 4 mps 752 mmHg 37%
    11:00 +12°C° 0 mm 5 mps 752 mmHg 35%
    12:00 +13°C° 0 mm 5 mps 752 mmHg 34%
    13:00 +14°C° 0 mm 5 mps 753 mmHg 34%
    14:00 +14°C° 0 mm 4 mps 753 mmHg 35%
    15:00 +14°C° 0 mm 4 mps 753 mmHg 35%
    16:00 +13°C° 0 mm 3 mps 753 mmHg 39%
    17:00 +13°C° 0 mm 2 mps 754 mmHg 44%
    18:00 +10°C° 0 mm 2 mps 755 mmHg 48%
    19:00 +10°C° 0 mm 2 mps 755 mmHg 53%
    20:00 +9°C° 0 mm 2 mps 756 mmHg 58%
    21:00 +8°C° 0 mm 2 mps 756 mmHg 63%
    22:00 +8°C° 0 mm 2 mps 757 mmHg 68%
    23:00 +7°C° 0 mm 2 mps 757 mmHg 74%

    Day after tomorrow, 25 January, Thursday

    Time Temperature Precipitation Wind Pressure Humidity
    00:00 +6°C° 0 mm 2 mps 757 mmHg 80%
    01:00 +6°C° 0 mm 2 mps 757 mmHg 83%
    02:00 +5°C° 0 mm 2 mps 758 mmHg 85%
    03:00 +6°C° 0 mm 1 mps 758 mmHg 88%
    04:00 +6°C° 0 mm 1 mps 758 mmHg 89%
    05:00 +6°C° 0 mm 1 mps 758 mmHg 90%
    06:00 +5°C° 0 mm 1 mps 758 mmHg 90%
    07:00 +5°C° 0 mm 2 mps 759 mmHg 88%
    08:00 +5°C° 0 mm 2 mps 759 mmHg 86%
    09:00 +5°C° 0 mm 2 mps 759 mmHg 84%
    10:00 +6°C° 0.1 mm 2 mps 759 mmHg 81%
    11:00 +5°C° 0.1 mm 3 mps 759 mmHg 79%
    12:00 +7°C° 0.1 mm 3 mps 759 mmHg 77%
    13:00 +7°C° 0.1 mm 3 mps 759 mmHg 76%
    14:00 +7°C° 0.1 mm 3 mps 758 mmHg 75%
    15:00 +7°C° 0.1 mm 3 mps 758 mmHg 74%
    16:00 +7°C° 0 mm 3 mps 759 mmHg 76%
    17:00 +6°C° 0 mm 2 mps 759 mmHg 78%
    18:00 +6°C° 0 mm 2 mps 759 mmHg 80%
    19:00 +6°C° 0.1 mm 2 mps 759 mmHg 81%
    20:00 +5°C° 0.1 mm 3 mps 759 mmHg 82%
    21:00 +5°C° 0.1 mm 3 mps 760 mmHg 82%
    22:00 +4°C° 0 mm 3 mps 760 mmHg 83%
    23:00 +4°C° 0 mm 3 mps 759 mmHg 83%

    26 January, Friday

    Time Temperature Precipitation Wind Pressure Humidity
    00:00 +5°C° 0 mm 2 mps 759 mmHg 84%
    01:00 +5°C° 0 mm 2 mps 759 mmHg 84%
    02:00 +5°C° 0 mm 2 mps 759 mmHg 85%
    03:00 +5°C° 0 mm 2 mps 759 mmHg 85%
    04:00 +4°C° 0 mm 2 mps 759 mmHg 86%
    05:00 +4°C° 0 mm 2 mps 759 mmHg 86%
    06:00 +4°C° 0 mm 2 mps 759 mmHg 86%
    07:00 +4°C° 0 mm 2 mps 759 mmHg 85%
    08:00 +5°C° 0 mm 2 mps 759 mmHg 84%
    09:00 +5°C° 0 mm 2 mps 759 mmHg 83%
    10:00 +4°C° 0.1 mm 3 mps 759 mmHg 80%
    11:00 +5°C° 0.1 mm 3 mps 758 mmHg 77%
    12:00 +5°C° 0.1 mm 3 mps 758 mmHg 74%
    13:00 +5°C° 0.1 mm 3 mps 758 mmHg 74%
    14:00 +5°C° 0.1 mm 3 mps 758 mmHg 73%
    15:00 +5°C° 0.1 mm 3 mps 757 mmHg 73%
    16:00 +5°C° 0.1 mm 3 mps 758 mmHg 75%
    17:00 +5°C° 0.1 mm 3 mps 758 mmHg 78%
    18:00 +5°C° 0.1 mm 2 mps 758 mmHg 81%
    19:00 +4°C° 0.1 mm 3 mps 759 mmHg 82%
    20:00 +4°C° 0.1 mm 3 mps 759 mmHg 83%
    21:00 +4°C° 0.1 mm 3 mps 759 mmHg 84%
    22:00 +4°C° 0.1 mm 3 mps 759 mmHg 84%
    23:00 +4°C° 0.1 mm 3 mps 759 mmHg 84%

    27 January, Saturday

    Time Temperature Precipitation Wind Pressure Humidity
    00:00 +4°C° 0.1 mm 3 mps 759 mmHg 84%
    01:00 +4°C° 0.1 mm 3 mps 759 mmHg 84%
    02:00 +4°C° 0.1 mm 2 mps 759 mmHg 84%
    03:00 +4°C° 0.1 mm 2 mps 759 mmHg 84%
    04:00 +4°C° 0.1 mm 2 mps 759 mmHg 85%
    05:00 +4°C° 0.1 mm 2 mps 759 mmHg 85%
    06:00 +4°C° 0.1 mm 2 mps 759 mmHg 85%
    07:00 +4°C° 0.2 mm 2 mps 759 mmHg 84%
    08:00 +4°C° 0.2 mm 3 mps 760 mmHg 82%
    09:00 +4°C° 0.2 mm 3 mps 760 mmHg 80%
    10:00 +4°C° 0.1 mm 3 mps 760 mmHg 78%
    11:00 +5°C° 0.1 mm 3 mps 760 mmHg 75%
    12:00 +5°C° 0.1 mm 3 mps 760 mmHg 73%
    13:00 +5°C° 0 mm 3 mps 760 mmHg 72%
    14:00 +7°C° 0 mm 3 mps 760 mmHg 70%
    15:00 +7°C° 0 mm 3 mps 760 mmHg 69%
    16:00 +5°C° 0 mm 3 mps 760 mmHg 73%
    17:00 +5°C° 0 mm 3 mps 761 mmHg 76%
    18:00 +4°C° 0 mm 3 mps 762 mmHg 79%
    19:00 +4°C° 0.1 mm 3 mps 762 mmHg 79%
    20:00 +4°C° 0.1 mm 4 mps 762 mmHg 79%
    21:00 +4°C° 0.1 mm 4 mps 763 mmHg 79%
    22:00 +3°C° 0.1 mm 4 mps 763 mmHg 80%
    23:00 +3°C° 0.1 mm 4 mps 763 mmHg 80%

    28 January, Sunday

    Time Temperature Precipitation Wind Pressure Humidity
    00:00 +3°C° 0.1 mm 4 mps 764 mmHg 80%
    01:00 +2°C° 0.1 mm 3 mps 764 mmHg 81%
    02:00 +2°C° 0.1 mm 3 mps 764 mmHg 82%
    03:00 +2°C° 0.1 mm 3 mps 764 mmHg 83%
    04:00 +3°C° 0 mm 2 mps 764 mmHg 83%
    05:00 +3°C° 0 mm 2 mps 764 mmHg 83%
    06:00 +2°C° 0 mm 2 mps 764 mmHg 84%
    07:00 +3°C° 0 mm 2 mps 765 mmHg 82%
    08:00 +3°C° 0 mm 2 mps 765 mmHg 80%
    09:00 +2°C° 0 mm 3 mps 766 mmHg 79%
    10:00 +3°C° 0 mm 3 mps 765 mmHg 76%
    11:00 +4°C° 0 mm 3 mps 765 mmHg 74%
    12:00 +4°C° 0 mm 3 mps 765 mmHg 71%
    13:00 +4°C° 0 mm 3 mps 765 mmHg 71%
    14:00 +4°C° 0 mm 3 mps 764 mmHg 70%
    15:00 +5°C° 0 mm 3 mps 764 mmHg 70%
    16:00 +4°C° 0 mm 3 mps 765 mmHg 73%
    17:00 +3°C° 0 mm 3 mps 765 mmHg 77%
    18:00 +3°C° 0 mm 3 mps 765 mmHg 80%
    19:00 +2°C° 0 mm 3 mps 765 mmHg 79%
    20:00 +2°C° 0 mm 3 mps 765 mmHg 78%
    21:00 +2°C° 0 mm 3 mps 766 mmHg 78%
    22:00 +1°C° 0 mm 3 mps 765 mmHg 77%
    23:00 +2°C° 0 mm 2 mps 765 mmHg 75%
    Show more